Time,TemperatureF,DewpointF,PressureIn,WindDirection,WindDirectionDegrees,WindSpeedMPH,WindSpeedGustMPH,Humidity,HourlyPrecipIn,Conditions,Clouds,dailyrainin,SoftwareType,DateUTC
2013-07-23 00:02:00,74.0,72.0,29.86,SSW,202,0.0,0.0,92,0.00,,,0.06,,2013-07-23 05:02:00,
2013-07-23 00:11:00,74.0,72.0,29.85,SSW,202,0.0,0.0,92,0.01,,,0.07,,2013-07-23 05:11:00,
2013-07-23 00:22:00,74.0,72.0,29.85,SSW,202,0.0,0.0,92,0.01,,,0.06,,2013-07-23 05:22:00,
2013-07-23 00:33:00,74.0,72.0,29.85,SSW,202,0.0,0.0,92,0.01,,,0.06,,2013-07-23 05:33:00,
2013-07-23 00:44:00,74.0,72.0,29.85,SSW,202,0.0,0.0,93,0.01,,,0.06,,2013-07-23 05:44:00,
2013-07-23 00:52:00,74.0,72.0,29.85,SSW,194,0.0,0.0,93,0.01,,,0.06,,2013-07-23 05:52:00,
2013-07-23 01:01:00,74.0,72.0,29.85,SSW,194,0.0,0.0,93,0.01,,,0.06,,2013-07-23 06:01:00,
2013-07-23 01:11:00,74.0,72.0,29.85,SSW,208,0.0,0.0,92,0.00,,,0.06,,2013-07-23 06:11:00,
2013-07-23 01:22:00,74.0,72.0,29.85,SSW,196,0.0,0.0,93,0.00,,,0.06,,2013-07-23 06:22:00,
2013-07-23 01:33:00,74.0,72.0,29.85,SSW,196,0.0,0.0,93,0.00,,,0.06,,2013-07-23 06:33:00,
2013-07-23 01:42:00,74.0,72.0,29.85,SSW,196,0.0,0.0,93,0.00,,,0.06,,2013-07-23 06:42:00,
2013-07-23 01:52:00,74.0,72.0,29.85,SSW,205,0.0,0.0,94,0.00,,,0.06,,2013-07-23 06:52:00,
2013-07-23 02:01:00,74.0,72.0,29.85,SSW,205,0.0,0.0,94,0.00,,,0.06,,2013-07-23 07:01:00,
2013-07-23 02:12:00,74.0,72.0,29.85,SSW,193,0.0,0.0,94,0.00,,,0.06,,2013-07-23 07:12:00,
2013-07-23 02:22:00,74.0,72.0,29.85,South,187,0.0,0.0,95,0.00,,,0.06,,2013-07-23 07:22:00,
2013-07-23 02:33:00,74.0,72.0,29.85,South,187,0.0,0.0,95,0.00,,,0.06,,2013-07-23 07:33:00,
2013-07-23 02:42:00,75.0,73.0,29.84,SSW,208,0.0,0.0,94,0.00,,,0.06,,2013-07-23 07:42:00,
2013-07-23 02:52:00,75.0,73.0,29.84,SSW,208,0.0,0.0,95,0.00,,,0.06,,2013-07-23 07:52:00,
2013-07-23 03:01:00,75.0,73.0,29.84,SSW,208,0.0,0.0,95,0.00,,,0.06,,2013-07-23 08:01:00,
2013-07-23 03:11:00,75.0,73.0,29.84,SSW,192,0.0,0.0,95,0.00,,,0.06,,2013-07-23 08:11:00,
2013-07-23 03:22:00,75.0,73.0,29.84,South,186,0.0,0.0,95,0.00,,,0.05,,2013-07-23 08:22:00,
2013-07-23 03:33:00,75.0,73.0,29.84,South,186,0.0,0.0,95,0.00,,,0.05,,2013-07-23 08:33:00,
2013-07-23 03:43:00,74.0,72.0,29.85,South,184,0.0,6.0,94,0.00,,,0.05,,2013-07-23 08:43:00,
2013-07-23 03:52:00,73.0,71.0,29.85,SSW,201,0.0,1.0,92,0.00,,,0.05,,2013-07-23 08:52:00,
2013-07-23 04:01:00,73.0,71.0,29.85,SSW,201,0.0,1.0,92,0.00,,,0.05,,2013-07-23 09:01:00,
2013-07-23 04:11:00,72.0,69.0,29.85,South,189,0.0,0.0,90,0.00,,,0.05,,2013-07-23 09:11:00,
2013-07-23 04:22:00,71.0,67.0,29.84,South,191,0.0,0.0,88,0.00,,,0.05,,2013-07-23 09:22:00,
2013-07-23 04:33:00,71.0,67.0,29.84,South,191,0.0,0.0,88,0.00,,,0.05,,2013-07-23 09:33:00,
2013-07-23 04:42:00,71.0,68.0,29.83,SSW,194,0.0,3.0,90,0.00,,,0.05,,2013-07-23 09:42:00,
2013-07-23 04:53:00,71.0,68.0,29.83,SSE,167,0.0,0.0,91,0.00,,,0.05,,2013-07-23 09:53:00,
2013-07-23 05:02:00,71.0,68.0,29.83,SSE,167,0.0,0.0,91,0.00,,,0.05,,2013-07-23 10:02:00,
2013-07-23 05:11:00,70.0,68.0,29.81,SSE,158,0.0,0.0,92,0.00,,,0.05,,2013-07-23 10:11:00,
2013-07-23 05:22:00,70.0,68.0,29.80,SSE,165,0.0,0.0,92,0.00,,,0.05,,2013-07-23 10:22:00,
2013-07-23 05:32:00,70.0,68.0,29.80,SSE,165,0.0,0.0,92,0.00,,,0.05,,2013-07-23 10:32:00,
2013-07-23 05:44:00,70.0,68.0,29.79,SSE,168,0.0,0.0,93,0.00,,,0.05,,2013-07-23 10:44:00,
2013-07-23 05:52:00,70.0,68.0,29.79,SSW,205,0.0,0.0,94,0.01,,,0.06,,2013-07-23 10:52:00,
2013-07-23 06:02:00,70.0,68.0,29.79,SSW,205,0.0,0.0,94,0.01,,,0.06,,2013-07-23 11:02:00,
2013-07-23 06:12:00,70.0,68.0,29.79,SSW,210,0.0,0.0,93,0.01,,,0.06,,2013-07-23 11:12:00,
2013-07-23 06:22:00,69.0,67.0,29.80,SSW,205,0.0,0.0,93,0.01,,,0.06,,2013-07-23 11:22:00,
2013-07-23 06:32:00,69.0,67.0,29.80,SSW,205,0.0,0.0,93,0.01,,,0.06,,2013-07-23 11:32:00,
2013-07-23 06:43:00,70.0,68.0,29.82,SSW,207,0.0,0.0,93,0.01,,,0.06,,2013-07-23 11:43:00,
2013-07-23 06:52:00,70.0,68.0,29.82,South,188,0.0,0.0,92,0.00,,,0.06,,2013-07-23 11:52:00,
2013-07-23 07:02:00,70.0,68.0,29.82,South,188,0.0,0.0,92,0.00,,,0.06,,2013-07-23 12:02:00,
2013-07-23 07:11:00,71.0,68.0,29.82,South,188,0.0,0.0,91,0.00,,,0.06,,2013-07-23 12:11:00,
2013-07-23 07:22:00,71.0,68.0,29.81,South,190,0.0,0.0,90,0.00,,,0.06,,2013-07-23 12:22:00,
2013-07-23 07:33:00,71.0,68.0,29.81,South,190,0.0,0.0,90,0.00,,,0.06,,2013-07-23 12:33:00,
2013-07-23 07:43:00,72.0,69.0,29.82,SSW,211,0.0,0.0,90,0.00,,,0.06,,2013-07-23 12:43:00,
2013-07-23 08:01:00,73.0,70.0,29.82,South,189,0.0,0.0,90,0.00,,,0.06,,2013-07-23 13:01:00,
2013-07-23 08:11:00,74.0,71.0,29.83,South,190,0.0,0.0,90,0.00,,,0.06,,2013-07-23 13:11:00,
2013-07-23 08:22:00,75.0,72.0,29.82,SSE,168,0.0,0.0,89,0.00,,,0.05,,2013-07-23 13:22:00,
2013-07-23 08:32:00,75.0,72.0,29.82,SSE,168,0.0,0.0,89,0.00,,,0.05,,2013-07-23 13:32:00,
2013-07-23 08:43:00,75.0,72.0,29.83,South,187,0.0,0.0,91,0.00,,,0.05,,2013-07-23 13:43:00,
2013-07-23 09:02:00,76.0,73.0,29.84,South,171,0.0,6.0,91,0.00,,,0.05,,2013-07-23 14:02:00,
2013-07-23 09:12:00,78.0,74.0,29.84,SW,215,1.0,8.0,89,0.00,,,0.05,,2013-07-23 14:12:00,
2013-07-23 09:22:00,78.0,74.0,29.85,South,169,4.0,8.0,88,0.00,,,0.05,,2013-07-23 14:22:00,
2013-07-23 09:32:00,78.0,74.0,29.85,South,169,4.0,8.0,88,0.00,,,0.05,,2013-07-23 14:32:00,
2013-07-23 09:44:00,79.0,74.0,29.85,SW,229,0.0,9.0,86,0.00,,,0.05,,2013-07-23 14:44:00,
2013-07-23 09:53:00,80.0,75.0,29.85,West,269,0.0,7.0,84,0.00,,,0.05,,2013-07-23 14:53:00,
2013-07-23 10:03:00,80.0,75.0,29.85,West,269,0.0,7.0,84,0.00,,,0.05,,2013-07-23 15:03:00,
2013-07-23 10:11:00,82.0,76.0,29.85,North,360,0.0,3.0,83,0.00,,,0.05,,2013-07-23 15:11:00,
2013-07-23 10:24:00,82.0,76.0,29.85,North,360,0.0,3.0,83,0.00,,,0.05,,2013-07-23 15:24:00,
2013-07-23 10:32:00,82.0,76.0,29.85,North,360,0.0,3.0,83,0.00,,,0.05,,2013-07-23 15:32:00,
2013-07-23 10:43:00,82.0,76.0,29.85,SW,221,0.0,7.0,81,0.00,,,0.05,,2013-07-23 15:43:00,
2013-07-23 10:52:00,83.0,76.0,29.85,South,185,0.0,4.0,79,0.00,,,0.05,,2013-07-23 15:52:00,
2013-07-23 11:01:00,83.0,76.0,29.85,South,185,0.0,4.0,79,0.00,,,0.05,,2013-07-23 16:01:00,
2013-07-23 11:12:00,83.0,75.0,29.85,NW,304,1.0,7.0,77,0.00,,,0.05,,2013-07-23 16:12:00,
2013-07-23 11:22:00,83.0,75.0,29.84,West,268,1.0,6.0,77,0.00,,,0.04,,2013-07-23 16:22:00,
2013-07-23 11:33:00,83.0,75.0,29.84,West,268,1.0,6.0,77,0.00,,,0.04,,2013-07-23 16:33:00,
2013-07-23 11:43:00,84.0,75.0,29.85,SW,217,0.0,7.0,74,0.00,,,0.04,,2013-07-23 16:43:00,
2013-07-23 11:52:00,85.0,76.0,29.84,SW,215,1.0,6.0,74,0.00,,,0.04,,2013-07-23 16:52:00,
2013-07-23 12:02:00,85.0,76.0,29.84,SW,215,1.0,6.0,74,0.00,,,0.04,,2013-07-23 17:02:00,
2013-07-23 12:11:00,85.0,76.0,29.84,South,182,0.0,2.0,74,0.00,,,0.04,,2013-07-23 17:11:00,
2013-07-23 12:22:00,85.0,76.0,29.83,WNW,284,0.0,5.0,75,0.00,,,0.04,,2013-07-23 17:22:00,
2013-07-23 12:32:00,85.0,76.0,29.83,WNW,284,0.0,5.0,75,0.00,,,0.04,,2013-07-23 17:32:00,
2013-07-23 12:42:00,85.0,75.0,29.83,SW,215,0.0,3.0,72,0.00,,,0.04,,2013-07-23 17:42:00,
2013-07-23 12:54:00,86.0,76.0,29.82,WNW,286,3.0,6.0,72,0.00,,,0.04,,2013-07-23 17:54:00,
2013-07-23 13:04:00,86.0,76.0,29.82,WNW,286,3.0,6.0,72,0.00,,,0.04,,2013-07-23 18:04:00,
2013-07-23 13:12:00,86.0,76.0,29.81,SSW,212,0.0,1.0,72,0.00,,,0.04,,2013-07-23 18:12:00,
2013-07-23 13:24:00,87.0,78.0,29.80,SSW,210,0.0,4.0,74,0.00,,,0.04,,2013-07-23 18:24:00,
2013-07-23 13:34:00,87.0,78.0,29.80,SSW,210,0.0,4.0,74,0.00,,,0.04,,2013-07-23 18:34:00,
2013-07-23 13:47:00,87.0,76.0,29.79,WNW,300,0.0,9.0,69,0.00,,,0.04,,2013-07-23 18:47:00,
2013-07-23 13:54:00,88.0,77.0,29.79,South,187,0.0,4.0,70,0.00,,,0.04,,2013-07-23 18:54:00,
2013-07-23 14:03:00,88.0,77.0,29.79,South,187,0.0,4.0,70,0.00,,,0.04,,2013-07-23 19:03:00,
2013-07-23 14:15:00,87.0,76.0,29.80,West,259,0.0,7.0,69,0.00,,,0.04,,2013-07-23 19:15:00,
2013-07-23 14:26:00,88.0,77.0,29.80,WNW,301,3.0,9.0,69,0.00,,,0.04,,2013-07-23 19:26:00,
2013-07-23 14:33:00,88.0,77.0,29.80,WNW,301,3.0,9.0,69,0.00,,,0.04,,2013-07-23 19:33:00,
2013-07-23 14:46:00,88.0,76.0,29.79,SSW,192,1.0,7.0,67,0.00,,,0.04,,2013-07-23 19:46:00,
2013-07-23 14:53:00,88.0,77.0,29.79,NW,313,0.0,7.0,69,0.00,,,0.04,,2013-07-23 19:53:00,
2013-07-23 15:13:00,88.0,76.0,29.79,WNW,284,0.0,8.0,67,0.00,,,0.04,,2013-07-23 20:13:00,
2013-07-23 15:23:00,89.0,77.0,29.79,WNW,294,1.0,6.0,68,0.00,,,0.03,,2013-07-23 20:23:00,
2013-07-23 15:34:00,89.0,77.0,29.79,WNW,294,1.0,6.0,68,0.00,,,0.03,,2013-07-23 20:34:00,
2013-07-23 15:45:00,89.0,77.0,29.79,NW,317,1.0,6.0,69,0.00,,,0.03,,2013-07-23 20:45:00,
2013-07-23 15:55:00,89.0,77.0,29.78,WSW,254,2.0,7.0,68,0.00,,,0.03,,2013-07-23 20:55:00,
2013-07-23 16:04:00,89.0,77.0,29.78,WSW,254,2.0,7.0,68,0.00,,,0.03,,2013-07-23 21:04:00,
2013-07-23 16:23:00,89.0,77.0,29.78,SSW,213,0.0,7.0,68,0.01,,,0.04,,2013-07-23 21:23:00,
2013-07-23 16:36:00,89.0,77.0,29.78,SSW,213,0.0,7.0,68,0.01,,,0.04,,2013-07-23 21:36:00,
2013-07-23 16:47:00,89.0,77.0,29.78,NW,317,0.0,3.0,69,0.01,,,0.04,,2013-07-23 21:47:00,
2013-07-23 16:54:00,88.0,77.0,29.76,WSW,256,0.0,1.0,71,0.01,,,0.04,,2013-07-23 21:54:00,
2013-07-23 17:05:00,88.0,77.0,29.76,WSW,256,0.0,1.0,71,0.01,,,0.04,,2013-07-23 22:05:00,
2013-07-23 17:12:00,89.0,77.0,29.77,WSW,240,0.0,7.0,69,0.01,,,0.04,,2013-07-23 22:12:00,
2013-07-23 17:24:00,89.0,79.0,29.77,WNW,302,0.0,4.0,73,0.00,,,0.04,,2013-07-23 22:24:00,
2013-07-23 17:34:00,89.0,79.0,29.77,WNW,302,0.0,4.0,73,0.00,,,0.04,,2013-07-23 22:34:00,
2013-07-23 18:13:00,87.0,77.0,29.75,West,263,0.0,4.0,72,0.00,,,0.04,,2013-07-23 23:13:00,
2013-07-23 18:24:00,86.0,77.0,29.76,North,5,0.0,0.0,75,0.00,,,0.03,,2013-07-23 23:24:00,
2013-07-23 18:35:00,86.0,77.0,29.76,North,5,0.0,0.0,75,0.00,,,0.03,,2013-07-23 23:35:00,
2013-07-23 18:44:00,84.0,75.0,29.75,NNW,344,0.0,0.0,75,0.00,,,0.03,,2013-07-23 23:44:00,
2013-07-23 19:08:00,85.0,76.0,29.75,NE,42,0.0,0.0,75,0.00,,,0.03,,2013-07-24 00:08:00,
2013-07-23 19:14:00,85.0,77.0,29.76,NNW,343,0.0,0.0,76,0.00,,,0.03,,2013-07-24 00:14:00,
2013-07-23 19:26:00,84.0,76.0,29.77,North,355,0.0,0.0,77,0.00,,,0.03,,2013-07-24 00:26:00,
2013-07-23 19:34:00,84.0,76.0,29.77,North,355,0.0,0.0,77,0.00,,,0.03,,2013-07-24 00:34:00,
2013-07-23 19:48:00,83.0,75.0,29.77,NNE,13,0.0,0.0,77,0.00,,,0.03,,2013-07-24 00:48:00,
2013-07-23 19:54:00,82.0,72.0,29.78,NNW,335,0.0,3.0,73,0.00,,,0.03,,2013-07-24 00:54:00,
2013-07-23 20:04:00,82.0,72.0,29.78,NNW,335,0.0,3.0,73,0.00,,,0.03,,2013-07-24 01:04:00,
2013-07-23 20:14:00,82.0,72.0,29.79,North,355,0.0,0.0,73,0.00,,,0.03,,2013-07-24 01:14:00,
2013-07-23 20:24:00,81.0,73.0,29.79,North,360,0.0,0.0,76,0.00,,,0.03,,2013-07-24 01:24:00,
2013-07-23 20:33:00,81.0,73.0,29.79,North,360,0.0,0.0,76,0.00,,,0.03,,2013-07-24 01:33:00,
2013-07-23 20:44:00,80.0,73.0,29.80,North,360,0.0,0.0,79,0.00,,,0.03,,2013-07-24 01:44:00,
2013-07-23 20:56:00,79.0,72.0,29.81,North,360,0.0,0.0,80,0.00,,,0.03,,2013-07-24 01:56:00,
2013-07-23 21:05:00,79.0,72.0,29.81,North,360,0.0,0.0,80,0.00,,,0.03,,2013-07-24 02:05:00,
2013-07-23 21:16:00,78.0,72.0,29.82,North,360,0.0,0.0,81,0.00,,,0.03,,2013-07-24 02:16:00,
2013-07-23 21:26:00,78.0,71.0,29.84,North,360,0.0,0.0,79,0.00,,,0.03,,2013-07-24 02:26:00,
2013-07-23 21:47:00,79.0,72.0,29.85,North,355,0.0,0.0,79,0.00,,,0.03,,2013-07-24 02:47:00,
2013-07-23 21:55:00,78.0,71.0,29.86,NNE,30,0.0,0.0,80,0.00,,,0.03,,2013-07-24 02:55:00,
2013-07-23 22:04:00,78.0,71.0,29.86,NNE,30,0.0,0.0,80,0.00,,,0.03,,2013-07-24 03:04:00,
2013-07-23 22:13:00,78.0,72.0,29.87,East,81,0.0,0.0,81,0.00,,,0.03,,2013-07-24 03:13:00,
2013-07-23 22:24:00,77.0,71.0,29.88,East,80,0.0,0.0,82,0.00,,,0.03,,2013-07-24 03:24:00,
2013-07-23 22:45:00,77.0,71.0,29.88,NNE,20,0.0,0.0,81,0.00,,,0.03,,2013-07-24 03:45:00,
2013-07-23 22:54:00,77.0,70.0,29.88,NNE,20,0.0,0.0,80,0.00,,,0.03,,2013-07-24 03:54:00,
2013-07-23 23:01:00,77.0,70.0,29.88,NNE,20,0.0,0.0,80,0.00,,,0.03,,2013-07-24 04:01:00,
2013-07-23 23:11:00,76.0,70.0,29.88,South,191,0.0,0.0,82,0.00,,,0.03,,2013-07-24 04:11:00,
2013-07-23 23:22:00,74.0,69.0,29.88,SW,224,0.0,0.0,85,0.01,,,0.04,,2013-07-24 04:22:00,
2013-07-23 23:32:00,74.0,69.0,29.88,SW,224,0.0,0.0,85,0.01,,,0.04,,2013-07-24 04:32:00,
2013-07-23 23:43:00,73.0,69.0,29.89,South,190,0.0,2.0,87,0.01,,,0.04,,2013-07-24 04:43:00,
2013-07-23 23:52:00,73.0,69.0,29.89,South,191,0.0,0.0,88,0.01,,,0.04,,2013-07-24 04:52:00,